Date,TemperatureHighF,TemperatureAvgF,TemperatureLowF,DewpointHighF,DewpointAvgF,DewpointLowF,HumidityHigh,HumidityAvg,HumidityLow,PressureMaxIn,PressureMinIn,WindSpeedMaxMPH,WindSpeedAvgMPH,GustSpeedMaxMPH,PrecipitationSumIn
2019-1-1,49.7,46.4,43.1,46.4,42.0,37.2,89,84,78,30.69,30.49,5,2,13,0.00
2019-1-2,43.7,42.0,40.3,38.7,37.5,36.1,91,84,75,30.80,30.69,5,2,12,0.00
2019-1-3,42.1,41.2,40.3,38.3,36.9,33.2,90,85,75,30.80,30.76,3,1,7,0.00
2019-1-4,41.5,38.8,36.0,37.0,32.7,29.9,84,79,74,30.80,30.69,5,1,12,0.00
2019-1-5,42.6,41.3,40.1,38.2,35.7,33.8,85,82,78,30.69,30.61,5,2,13,0.00
2019-1-6,45.3,43.8,42.4,43.6,40.6,37.4,94,88,81,30.62,30.57,3,0,7,0.00
2019-1-7,52.0,48.7,45.3,47.9,44.8,41.4,94,88,79,30.61,30.27,8,2,15,0.00
2019-1-8,47.7,45.4,43.1,40.8,38.1,34.2,86,76,68,30.34,30.26,8,3,18,0.00
2019-1-9,43.2,40.9,38.8,38.4,36.7,34.9,92,85,73,30.40,30.30,7,3,17,0.00
2019-1-10,41.0,38.9,37.1,39.7,36.8,35.4,96,92,87,30.44,30.36,4,1,9,0.01
2019-1-11,45.3,43.2,41.0,43.1,41.8,39.5,96,93,84,30.42,30.35,3,0,6,0.03
2019-1-12,49.8,46.3,43.0,45.7,42.6,38.8,89,84,82,30.37,30.01,6,3,15,0.00
2019-1-13,52.4,49.5,46.6,47.2,45.2,39.9,86,82,74,30.02,29.80,10,4,21,0.00
2019-1-14,46.7,42.1,37.4,41.6,40.0,35.3,94,85,78,30.20,29.89,7,2,14,0.00
2019-1-15,47.9,43.2,38.6,43.3,40.3,35.1,88,84,79,30.19,29.94,6,1,13,0.00
2019-1-16,47.6,42.5,37.5,45.7,42.7,36.5,96,92,86,29.94,29.54,10,2,22,0.08
2019-1-17,40.7,38.5,36.4,39.5,33.4,29.3,97,82,67,30.09,29.59,10,3,20,0.06
2019-1-18,45.1,37.4,29.8,36.3,31.6,26.9,90,82,67,30.11,29.96,5,1,13,0.00
2019-1-19,44.1,35.6,27.2,35.4,31.7,24.3,91,83,69,29.96,29.81,7,1,16,0.00
2019-1-20,41.5,33.6,25.7,35.1,31.6,23.4,95,83,72,30.24,29.89,4,0,9,0.00
2019-1-21,43.5,34.4,25.4,37.3,30.8,24.1,96,87,69,30.27,29.86,6,0,14,0.00
2019-1-22,43.2,39.2,35.3,39.9,35.6,31.8,96,88,73,29.86,29.42,10,1,22,0.17
2019-1-23,37.1,35.8,34.4,34.4,33.0,31.9,93,91,88,29.80,29.41,5,2,15,0.02
2019-1-24,38.5,32.2,26.0,36.4,32.1,24.8,96,93,85,29.97,29.80,2,0,4,0.01
2019-1-25,51.3,43.3,35.3,48.4,40.9,33.3,97,92,88,29.97,29.88,5,1,10,0.03
2019-1-26,50.3,46.7,43.0,45.8,43.5,41.3,95,89,80,29.91,29.14,9,2,22,0.02
2019-1-27,46.8,42.2,37.7,44.0,37.5,32.9,95,82,70,29.44,29.04,11,4,21,0.16
2019-1-28,41.7,34.5,27.2,33.8,30.7,22.6,85,77,68,29.83,29.44,9,3,25,0.00
2019-1-29,42.6,34.3,26.1,38.7,31.8,22.1,95,87,78,29.81,29.32,6,1,12,0.10
2019-1-30,40.8,34.0,27.3,34.3,31.3,25.5,96,89,76,29.44,29.32,7,1,16,0.09
2019-1-31,40.5,31.5,22.5,36.3,28.6,21.2,97,91,72,29.44,29.09,6,1,16,0.03
2019-2-1,39.4,36.5,33.5,38.6,35.7,31.7,97,95,91,29.37,29.06,6,2,14,0.79
2019-2-2,39.2,37.3,35.4,35.5,34.3,32.4,93,90,85,30.04,29.37,7,3,20,0.02
2019-2-3,43.5,37.5,31.5,36.3,30.2,24.9,88,78,50,30.28,30.03,5,1,13,0.00
2019-2-4,45.7,42.8,40.0,44.4,41.1,36.3,96,92,84,30.24,30.02,13,4,32,0.18
2019-2-5,46.1,43.5,40.9,44.3,41.9,39.6,97,95,92,30.30,30.15,9,2,20,0.00
2019-2-6,53.4,48.6,43.7,50.2,47.1,42.6,98,95,87,30.16,29.71,9,2,21,0.24
2019-2-7,51.2,47.4,43.6,48.3,40.2,36.0,96,78,62,29.83,29.61,14,4,25,0.04
2019-2-8,50.2,48.2,46.2,48.0,45.5,41.4,96,91,81,29.82,29.34,16,5,35,0.26
2019-2-9,52.1,48.0,43.9,43.4,40.1,36.4,93,76,58,29.66,29.38,15,4,28,0.06
2019-2-10,45.3,41.5,37.7,43.4,39.4,32.6,96,88,79,29.84,29.23,9,2,22,0.06
2019-2-11,46.4,39.0,31.6,40.2,35.7,29.2,96,88,77,30.51,29.84,5,1,10,0.00
2019-2-12,51.5,43.3,35.2,43.7,39.9,32.7,95,86,73,30.55,30.50,8,1,15,0.00
2019-2-13,51.3,46.8,42.3,45.3,42.6,38.5,95,89,78,30.55,30.49,5,1,12,0.01
2019-2-14,56.2,44.3,32.5,45.0,38.1,31.1,98,78,49,30.54,30.44,4,0,8,0.01
2019-2-15,59.4,47.0,34.7,45.7,39.3,32.9,95,81,53,30.44,30.24,3,0,8,0.01
2019-2-16,56.3,47.3,38.4,51.5,44.7,35.6,96,90,82,30.26,30.16,5,1,12,0.00
2019-2-17,56.1,46.7,37.2,47.0,42.6,36.2,98,84,61,30.16,29.96,8,2,18,0.01
2019-2-18,55.0,48.9,42.8,48.7,44.4,39.9,96,89,76,30.03,29.95,6,1,14,0.02
2019-2-19,54.0,47.2,40.3,42.9,40.3,37.7,92,83,58,30.12,30.02,8,2,14,0.01
2019-2-20,54.9,48.7,42.5,45.3,42.6,40.6,94,85,65,30.23,30.09,7,1,17,0.00
2019-2-21,58.8,50.3,42.0,50.3,45.2,40.6,96,88,71,30.48,30.21,6,1,12,0.00
2019-2-22,53.2,43.7,34.1,50.6,42.4,33.0,98,94,85,30.60,30.47,4,1,10,0.01
2019-2-23,61.1,48.8,36.7,51.5,43.9,35.1,98,88,49,30.58,30.51,4,1,9,0.01
2019-2-24,57.7,45.7,33.7,47.0,37.5,30.8,98,85,41,30.64,30.54,4,0,6,0.01
2019-2-25,57.6,44.0,30.5,46.5,36.3,29.1,98,82,49,30.65,30.56,4,0,7,0.00
2019-2-26,63.9,47.1,30.2,49.3,38.4,28.7,97,82,48,30.57,30.41,3,0,9,0.00
2019-2-27,62.6,47.6,32.6,47.8,43.9,31.1,97,75,52,30.37,30.11,2,0,6,0.00
2019-2-28,55.5,47.0,38.6,49.8,45.1,36.6,97,89,74,30.11,29.92,8,1,16,0.02
2019-3-1,48.4,46.4,44.4,47.2,44.1,41.8,96,91,86,30.11,29.94,3,1,10,0.10
2019-3-2,56.7,50.4,44.3,49.7,46.6,42.4,95,88,75,30.01,29.70,9,2,21,0.00
2019-3-3,55.0,51.5,48.1,51.1,49.1,43.5,95,90,77,29.71,29.20,13,4,28,0.10
2019-3-4,51.0,45.3,39.6,45.8,39.5,36.1,95,83,65,29.58,29.09,13,3,23,0.39
2019-3-5,54.2,46.8,39.5,47.1,40.5,35.7,92,79,56,29.67,29.55,9,2,18,0.05
2019-3-6,53.2,50.3,47.5,48.6,46.9,44.8,93,86,81,29.55,29.10,10,5,21,0.12
2019-3-7,53.3,48.0,42.7,46.7,40.9,37.6,90,76,56,29.63,29.11,15,5,30,0.00
2019-3-8,52.2,45.4,38.7,46.7,41.0,36.8,94,83,60,29.93,29.63,9,2,21,0.11
2019-3-9,57.5,51.0,44.4,46.8,40.6,35.5,94,70,47,29.99,29.75,15,4,27,0.07
2019-3-10,53.2,44.9,36.7,49.0,38.7,27.3,96,77,43,30.03,29.47,18,4,39,0.28
2019-3-11,50.2,44.5,38.7,40.7,33.9,30.8,84,68,52,30.30,30.02,9,4,22,0.00
2019-3-12,48.7,44.1,39.4,45.9,40.9,35.9,95,87,74,30.17,29.46,18,6,31,0.41
2019-3-13,52.6,47.2,41.8,42.9,38.6,35.6,80,73,63,29.90,29.59,14,5,27,0.01
2019-3-14,55.2,50.2,45.1,48.6,43.0,39.0,90,78,63,29.90,29.50,13,4,23,0.09
2019-3-15,58.9,53.5,48.0,52.7,49.3,43.8,95,85,73,29.85,29.65,16,5,22,0.27
2019-3-16,53.0,49.8,46.5,49.4,46.3,43.6,95,83,73,29.83,29.39,13,5,30,0.10
2019-3-17,50.3,44.0,37.8,44.2,37.5,30.2,92,80,47,29.94,29.41,14,3,24,0.07
2019-3-18,52.1,43.4,34.8,41.1,38.6,32.9,93,81,56,30.27,29.93,6,1,12,0.01
2019-3-19,55.8,44.4,33.1,47.3,41.9,31.5,97,86,68,30.43,30.26,4,1,12,0.01
2019-3-20,57.1,51.4,45.8,50.4,47.3,43.8,95,87,78,30.52,30.42,5,1,8,0.00
2019-3-21,56.0,51.5,47.1,50.3,47.5,44.6,92,87,80,30.53,30.44,4,0,9,0.00
2019-3-22,53.9,50.3,46.8,47.8,45.6,43.7,91,86,78,30.44,30.32,5,1,10,0.00
2019-3-23,51.2,46.6,41.9,46.9,42.9,39.1,95,86,71,30.50,30.36,6,1,12,0.00
2019-3-24,56.0,43.6,31.2,43.2,37.1,29.7,96,77,52,30.50,30.33,4,1,12,0.00
2019-3-25,53.0,47.9,42.8,40.7,38.3,36.2,79,71,58,30.56,30.31,8,3,20,0.00
2019-3-26,53.0,42.7,32.4,42.3,37.3,30.5,95,79,62,30.56,30.48,5,1,10,0.00
2019-3-27,51.2,47.1,42.9,43.8,41.9,37.7,87,79,74,30.60,30.50,4,1,7,0.00
2019-3-28,55.0,46.0,37.0,44.5,41.4,34.3,93,81,61,30.62,30.53,4,0,8,0.00
2019-3-29,56.3,44.8,33.4,49.4,42.4,31.2,96,87,73,30.53,30.23,5,1,8,0.00
2019-3-30,63.0,50.3,37.7,52.1,45.4,35.9,95,82,62,30.23,30.09,6,0,9,0.00
2019-3-31,49.7,47.8,45.9,47.1,43.5,39.8,92,85,76,30.29,30.15,9,4,18,0.00
2019-4-1,49.8,44.8,39.8,43.5,40.7,37.7,93,83,75,30.26,29.88,8,3,17,0.00
2019-4-2,51.6,43.0,34.5,47.3,39.4,33.5,97,93,82,29.88,29.55,9,1,15,0.17
2019-4-3,45.1,39.7,34.3,41.7,36.7,33.0,97,92,81,29.58,29.46,4,0,9,0.14
2019-4-4,50.9,42.0,33.0,41.8,35.6,31.3,96,77,49,29.56,29.39,9,2,20,0.04
2019-4-5,55.9,48.5,41.2,44.3,39.3,34.6,88,72,47,29.67,29.56,9,2,14,0.00
2019-4-6,50.3,47.6,44.9,47.2,45.1,42.4,94,91,88,29.71,29.65,5,2,12,0.00
2019-4-7,52.8,49.2,45.7,50.8,47.3,44.6,98,96,92,29.81,29.69,5,1,12,0.06
2019-4-8,55.4,50.6,45.8,50.0,47.0,44.7,96,92,81,29.89,29.79,4,1,7,0.08
2019-4-9,50.2,48.4,46.7,48.7,45.6,42.6,97,92,79,29.97,29.86,8,2,16,0.06
2019-4-10,48.9,46.1,43.3,44.2,39.7,34.5,88,77,61,30.21,29.97,9,5,20,0.00
2019-4-11,47.9,45.2,42.4,37.3,34.5,32.7,75,68,60,30.32,30.21,7,3,14,0.00
2019-4-12,49.6,45.9,42.3,38.7,34.9,32.0,83,67,56,30.32,30.28,6,2,14,0.00
2019-4-13,47.0,43.1,39.2,37.7,33.7,30.4,83,69,58,30.36,30.28,10,2,15,0.01
2019-4-14,47.5,42.4,37.6,37.1,34.5,31.4,87,73,57,30.31,30.24,8,2,18,0.02
2019-4-15,53.7,46.2,38.8,45.3,40.3,34.8,90,78,61,30.29,29.97,8,2,16,0.00
2019-4-16,59.3,52.6,45.9,48.8,46.0,43.2,94,85,65,30.05,29.92,6,1,10,0.00
2019-4-17,63.3,51.2,39.2,52.7,46.3,37.8,97,86,61,30.18,30.05,4,1,8,0.00
2019-4-18,58.7,49.4,40.2,53.2,46.7,39.2,98,84,70,30.27,30.18,7,2,13,0.00
2019-4-19,57.7,48.8,39.9,50.5,46.6,38.3,97,86,72,30.43,30.27,6,1,12,0.00
2019-4-20,60.4,52.2,44.0,51.7,48.0,42.1,96,85,69,30.43,30.31,5,1,8,0.00
2019-4-21,62.3,50.4,38.6,52.1,44.9,37.3,97,82,53,30.32,29.95,5,1,9,0.01
2019-4-22,73.2,56.2,39.3,55.0,46.9,37.6,96,75,44,29.95,29.55,4,0,10,0.00
2019-4-23,62.8,53.9,45.1,51.2,47.3,43.0,95,85,57,29.55,29.37,6,1,12,0.00
2019-4-24,66.4,56.0,45.5,56.0,49.4,43.6,95,83,67,29.50,29.31,10,2,22,0.00
2019-4-25,59.0,52.8,46.7,51.8,47.0,41.3,94,82,54,29.72,29.44,9,2,18,0.07
2019-4-26,62.0,53.0,44.1,49.7,45.8,40.7,96,78,50,29.87,29.71,9,2,18,0.00
2019-4-27,53.8,49.4,45.0,47.4,40.7,35.8,94,72,52,29.97,29.73,10,4,24,0.08
2019-4-28,54.4,48.8,43.3,48.3,43.7,39.6,95,83,71,30.22,29.96,7,2,20,0.13
2019-4-29,56.4,49.4,42.6,49.6,46.3,40.4,94,87,74,30.31,30.22,6,1,12,0.00
2019-4-30,52.1,46.3,40.6,45.9,43.6,38.8,96,86,75,30.31,30.17,4,1,8,0.00
2019-5-1,61.8,51.4,41.1,50.1,45.7,38.9,94,83,64,30.17,29.98,4,1,8,0.00
2019-5-2,61.3,55.6,49.9,49.7,48.2,43.9,91,83,56,29.98,29.85,5,1,13,0.06
2019-5-3,56.8,50.6,44.5,51.0,46.0,39.0,91,86,77,29.98,29.87,8,1,15,0.05
2019-5-4,50.3,46.3,42.5,41.5,38.3,33.7,87,75,62,30.20,29.93,11,4,22,0.14
2019-5-5,51.8,47.3,42.9,41.2,39.0,34.6,88,75,55,30.28,30.20,7,2,14,0.00
2019-5-6,53.3,48.7,44.2,41.2,37.2,33.4,79,65,48,30.22,30.10,5,1,12,0.00
2019-5-7,59.9,50.8,41.6,43.9,39.6,35.7,86,66,47,30.11,29.73,8,1,15,0.00
2019-5-8,60.4,54.2,48.1,50.6,46.9,42.8,95,83,62,29.73,29.28,8,2,20,0.35
2019-5-9,58.5,52.9,47.4,53.9,49.1,45.2,96,90,77,29.67,29.30,4,1,10,0.01
2019-5-10,55.6,49.8,43.9,50.2,46.8,42.0,98,88,69,29.83,29.67,4,1,9,0.09
2019-5-11,55.5,47.5,39.6,48.8,43.7,37.9,97,85,69,30.41,29.83,6,1,12,0.04
2019-5-12,55.9,45.2,34.5,46.7,40.8,33.1,97,79,59,30.69,30.41,6,1,13,0.01
2019-5-13,55.8,46.2,36.6,45.5,42.1,34.5,95,79,66,30.73,30.64,6,2,13,0.00
2019-5-14,56.4,51.0,45.8,46.2,44.7,42.5,90,77,63,30.64,30.40,7,2,16,0.00
2019-5-15,60.0,53.5,47.0,52.0,48.1,44.1,95,82,66,30.40,30.20,7,2,13,0.00
2019-5-16,58.5,50.2,41.9,49.9,46.3,40.0,96,79,54,30.20,29.90,6,2,15,0.00
2019-5-17,57.6,54.6,51.6,50.3,49.0,46.3,91,84,74,29.90,29.71,6,2,13,0.00
2019-5-18,62.7,55.5,48.5,52.5,50.2,46.6,94,82,69,29.77,29.68,4,1,8,0.00
2019-5-19,58.4,55.4,52.4,51.7,50.3,48.9,91,84,73,29.83,29.76,5,1,8,0.02
2019-5-20,63.7,56.7,49.7,55.3,52.3,46.7,90,81,70,29.96,29.84,6,1,12,0.01
2019-5-21,68.9,57.9,47.0,52.5,47.8,44.1,96,72,43,30.08,29.95,5,1,12,0.00
2019-5-22,69.1,59.5,49.9,49.3,45.6,39.0,85,59,40,30.13,30.06,6,2,13,0.00
2019-5-23,73.8,59.5,45.1,55.5,50.5,41.1,87,60,43,30.05,29.94,8,2,15,0.00
2019-5-24,72.8,63.3,54.2,55.6,51.9,48.7,91,65,45,30.04,29.98,5,1,12,0.00
2019-5-25,73.7,65.2,57.0,56.8,51.6,45.5,92,68,41,30.08,30.00,5,1,12,0.00
2019-5-26,73.7,66.3,59.1,59.9,56.4,51.8,90,76,58,30.00,29.81,6,1,14,0.00
2019-5-27,67.1,57.1,47.1,51.4,47.4,42.1,91,66,47,29.86,29.74,5,1,12,0.06
2019-5-28,61.6,54.9,48.2,51.4,49.0,45.5,95,82,65,30.07,29.73,6,2,14,0.43
2019-5-29,64.4,55.6,46.7,55.3,49.3,43.3,96,82,49,30.10,30.05,9,2,20,0.03
2019-5-30,75.9,66.1,56.4,62.1,58.1,53.5,96,79,59,30.22,30.05,4,1,12,0.00
2019-5-31,68.0,60.8,53.7,57.0,54.3,50.8,93,79,66,30.25,30.17,3,0,10,0.00
2019-6-1,78.8,64.4,50.1,60.3,53.4,44.2,94,71,32,30.17,29.97,6,1,12,0.00
2019-6-2,81.8,70.6,59.3,62.9,57.3,51.1,88,67,41,29.97,29.77,8,2,20,0.00
2019-6-3,69.1,60.5,52.0,56.4,50.2,47.3,88,69,48,29.92,29.81,5,0,13,0.00
2019-6-4,62.1,56.2,50.4,60.9,53.8,47.5,97,89,62,29.91,29.55,3,0,9,0.46
2019-6-5,64.4,58.5,52.6,54.9,52.4,49.6,97,84,63,29.77,29.61,8,1,12,0.07
2019-6-6,67.5,57.8,48.1,52.1,47.7,41.2,95,71,40,29.88,29.74,8,1,16,0.01
2019-6-7,62.1,56.8,51.5,56.7,52.4,47.7,96,84,69,29.86,29.42,10,2,18,0.21
2019-6-8,62.0,56.2,50.4,56.8,51.7,49.1,97,88,68,30.13,29.48,7,1,22,0.51
2019-6-9,64.5,56.0,47.6,54.4,50.4,46.0,96,82,65,30.17,30.07,4,0,7,0.01
2019-6-10,58.0,55.2,52.5,55.6,52.8,48.9,97,93,83,30.07,29.79,8,2,16,1.01
2019-6-11,67.4,56.8,46.1,55.2,49.8,42.2,98,81,46,29.87,29.80,4,0,9,0.01
2019-6-12,57.7,53.2,48.8,54.5,52.9,46.2,97,93,88,29.85,29.73,4,1,8,0.76
2019-6-13,61.6,54.5,47.4,56.1,51.4,46.5,98,87,67,29.78,29.69,9,2,21,0.05
2019-6-14,69.3,61.5,53.6,55.5,52.6,48.6,89,69,51,29.90,29.82,9,2,20,0.00
2019-6-15,69.0,60.0,51.1,55.6,52.3,49.1,94,77,54,29.95,29.86,9,2,20,0.00
2019-6-16,67.9,59.8,51.8,58.4,54.4,50.1,95,81,64,30.09,29.95,10,1,20,0.00
2019-6-17,72.9,62.8,52.7,58.1,53.8,49.0,94,73,48,30.09,30.00,8,1,15,0.00
2019-6-18,69.9,60.0,50.1,58.1,53.5,47.2,93,80,61,30.02,29.78,5,1,9,0.17
2019-6-19,67.0,62.0,57.1,63.0,59.1,55.3,98,93,80,29.88,29.67,4,0,10,0.70
2019-6-20,69.7,63.2,56.8,58.7,54.8,50.1,98,79,52,29.98,29.78,5,0,12,0.03
2019-6-21,68.8,59.1,49.6,56.8,51.1,46.3,94,73,48,30.15,29.98,4,1,12,0.00
2019-6-22,68.7,61.5,54.3,56.0,53.2,48.8,97,72,51,30.18,30.10,6,2,14,0.00
2019-6-23,67.5,59.5,51.6,62.0,58.6,49.9,97,88,80,30.10,29.95,6,1,13,0.00
2019-6-24,79.2,71.4,63.7,68.5,64.3,60.5,93,80,64,30.04,29.92,5,1,9,0.00
2019-6-25,71.6,68.0,64.4,66.0,64.2,62.7,96,89,81,30.19,29.97,4,1,10,0.28
2019-6-26,65.5,62.0,58.5,63.2,58.5,55.2,96,91,84,30.38,30.19,8,3,16,0.00
2019-6-27,63.4,60.2,56.9,57.1,54.9,53.2,90,85,77,30.42,30.33,8,4,17,0.00
2019-6-28,64.8,60.4,56.0,58.1,56.2,54.1,94,85,77,30.34,30.13,8,3,16,0.00
2019-6-29,88.1,69.7,51.2,69.2,61.8,49.8,97,75,50,30.14,29.81,4,1,8,0.00
2019-6-30,78.9,69.8,61.0,64.0,59.9,54.9,87,74,52,30.03,29.80,5,1,13,0.00
2019-7-1,71.4,63.3,55.2,57.1,54.2,51.0,89,70,52,30.20,30.03,5,1,12,0.00
2019-7-2,69.1,62.8,56.6,58.4,54.0,50.1,82,76,59,30.27,30.19,5,2,12,0.00
2019-7-3,66.8,57.5,48.2,54.7,51.1,45.6,93,72,52,30.33,30.27,5,2,12,0.00
2019-7-4,71.9,61.8,51.8,56.1,52.4,48.7,91,72,47,30.33,30.13,5,1,9,0.00
2019-7-5,76.2,66.6,57.1,61.5,57.2,52.4,88,71,49,30.13,29.94,5,1,8,0.00
2019-7-6,74.0,66.1,58.2,61.5,58.5,53.1,93,79,61,29.94,29.88,6,1,10,0.02
2019-7-7,66.7,58.3,49.9,57.5,52.3,45.4,94,76,53,30.09,29.94,5,1,12,0.03
2019-7-8,66.9,56.5,46.2,54.8,50.4,44.1,95,77,60,30.18,30.09,5,1,12,0.00
2019-7-9,71.0,63.8,56.5,56.6,53.3,50.5,84,73,57,30.18,30.10,4,1,8,0.00
2019-7-10,77.2,69.2,61.2,63.7,57.4,51.2,76,69,59,30.12,29.94,4,0,12,0.00
2019-7-11,78.2,68.8,59.7,62.2,56.1,50.8,79,67,46,29.95,29.83,5,0,9,0.00
2019-7-12,77.0,68.1,59.4,62.7,59.0,55.7,90,73,50,30.05,29.85,6,1,14,0.00
2019-7-13,68.6,63.3,58.1,60.7,58.4,54.2,94,83,73,30.18,30.05,4,1,13,0.00
2019-7-14,67.5,63.8,60.0,58.0,55.5,49.5,88,78,67,30.20,30.16,5,2,12,0.00
2019-7-15,66.8,60.3,53.9,55.7,52.4,49.2,87,73,63,30.19,30.14,5,2,13,0.00
2019-7-16,77.7,62.7,47.7,58.0,53.3,45.7,94,72,40,30.15,30.02,5,1,12,0.00
2019-7-17,78.6,65.1,51.6,58.7,54.5,49.4,94,68,45,30.04,29.85,6,1,12,0.00
2019-7-18,72.5,65.2,57.9,63.5,58.0,52.9,92,79,56,29.87,29.79,6,1,13,0.04
2019-7-19,70.5,61.3,52.1,62.8,57.1,48.3,92,81,63,29.91,29.77,9,2,20,0.04
2019-7-20,75.6,67.7,59.8,66.1,61.7,56.4,97,83,62,29.96,29.70,7,1,22,1.01
2019-7-21,70.9,62.3,53.8,58.1,54.9,51.5,94,86,61,30.13,29.96,4,0,22,0.00